Location: Trois-Rivi�res
(46.3500°N, 72.5500°W)
Time: 00:01:12
(UTC-05:00)

Vanguard 1 Rocket - All Passes

Search period start: 22 February 2018 00:00
Search period end: 04 March 2018 00:00
Orbit: 655 x 4222 km, 34.3° (Epoch: 20 February)

Date Brightness Start Highest point End Pass type
(mag) Time Alt. Az. Time Alt. Az. Time Alt. Az.
22 Feb - 00:40:28 10° WSW 01:03:59 61° S 01:27:01 10° ESE visible
22 Feb - 03:10:51 10° W 03:34:45 48° SSW 03:53:04 10° SE visible
22 Feb - 05:46:10 10° W 06:01:28 22° SW 06:13:10 10° S visible
22 Feb - 18:46:49 10° SSE 18:54:17 14° ESE 19:03:16 10° E visible
22 Feb - 21:03:18 10° SSW 21:19:35 41° SE 21:42:10 10° E visible
22 Feb - 23:27:54 10° WSW 23:49:17 60° S 00:13:50 10° E visible
23 Feb - 01:56:33 10° W 02:20:49 56° SSW 02:41:50 10° SE visible
23 Feb - 04:29:01 10° W 04:49:34 33° SW 05:05:02 10° SSE visible
23 Feb - 19:53:59 10° S 20:07:15 30° SE 20:26:05 10° E visible
23 Feb - 22:16:15 10° SW 22:35:01 54° SSE 22:59:45 10° E visible
24 Feb - 00:43:08 10° WSW 01:06:16 60° S 01:29:36 10° ESE visible
24 Feb - 03:13:34 10° W 03:36:42 44° SSW 03:55:13 10° SSE visible
24 Feb - 05:50:27 10° W 06:03:01 17° WSW 06:13:21 10° SSW visible
24 Feb - 18:46:35 10° SSE 18:55:54 18° SE 19:08:09 10° E visible
24 Feb - 21:05:31 10° SW 21:21:33 46° SSE 21:44:49 10° E visible
24 Feb - 23:30:35 10° WSW 23:51:35 61° S 00:16:24 10° ESE visible
25 Feb - 01:59:16 10° W 02:22:55 53° SSW 02:44:10 10° SE visible
25 Feb - 04:32:12 10° W 04:51:15 28° SW 05:06:24 10° S visible
25 Feb - 19:55:49 10° SSW 20:09:06 34° SE 20:29:00 10° E visible
25 Feb - 22:18:51 10° WSW 22:37:15 57° SSE 23:02:18 10° E visible
26 Feb - 00:45:54 10° W 01:08:31 58° SSW 01:32:03 10° ESE visible
26 Feb - 03:16:26 10° W 03:38:34 39° SW 03:57:04 10° SSE visible
26 Feb - 05:56:27 10° W 06:04:31 13° WSW 06:11:44 10° SW visible
26 Feb - 18:47:31 10° S 18:57:37 22° SE 19:11:56 10° E visible
26 Feb - 21:07:58 10° SW 21:23:40 49° SSE 21:47:23 10° E visible
26 Feb - 23:33:22 10° WSW 23:53:53 61° S 00:18:54 10° ESE visible
27 Feb - 02:02:04 10° W 02:24:58 48° SSW 02:46:18 10° SE visible
27 Feb - 04:35:48 10° W 04:52:51 23° SW 05:07:11 10° S visible
27 Feb - 17:43:27 10° SE 17:46:57 11° ESE 17:50:52 10° ESE daylight
27 Feb - 19:57:59 10° SSW 20:11:05 39° SE 20:31:42 10° E visible
27 Feb - 22:21:35 10° WSW 22:39:33 59° S 23:04:47 10° E visible
28 Feb - 00:48:43 10° W 01:10:43 56° SSW 01:34:21 10° SE visible
28 Feb - 03:19:30 10° W 03:40:19 34° SW 03:58:34 10° SSE visible
28 Feb - 18:49:06 10° S 18:59:28 27° SE 19:15:10 10° E visible
28 Feb - 21:10:35 10° SW 21:25:54 53° SSE 21:49:52 10° E visible
28 Feb - 23:36:12 10° WSW 23:56:13 59° S 00:21:16 10° ESE visible
01 Mar - 02:04:58 10° W 02:26:56 44° SSW 02:48:10 10° SSE visible
01 Mar - 04:40:09 10° W 04:54:24 18° SW 05:07:04 10° SSW visible
01 Mar - 17:42:25 10° SSE 17:48:43 15° ESE 17:56:50 10° E daylight
01 Mar - 20:00:23 10° SW 20:13:12 43° SSE 20:34:16 10° E visible
01 Mar - 22:24:26 10° WSW 22:41:56 59° S 23:07:12 10° ESE visible
02 Mar - 00:51:36 10° W 01:12:54 52° SSW 01:36:26 10° SE visible
02 Mar - 03:22:51 10° W 03:42:02 29° SW 03:59:35 10° S visible
02 Mar - 18:51:06 10° SSW 19:01:28 31° SE 19:18:05 10° E visible
02 Mar - 21:13:22 10° WSW 21:28:16 55° SSE 21:52:16 10° E visible
02 Mar - 23:39:07 10° W 23:58:33 57° S 00:23:30 10° ESE visible
03 Mar - 02:08:01 10° W 02:28:50 39° SW 02:49:43 10° SSE visible
03 Mar - 04:46:04 10° W 04:55:56 14° WSW 05:05:13 10° SSW visible
03 Mar - 17:43:19 10° SSE 17:50:37 19° SE 18:00:56 10° E daylight
03 Mar - 20:03:00 10° SW 20:15:29 47° SSE 20:36:45 10° E visible
03 Mar - 22:27:21 10° WSW 22:44:22 59° S 23:09:30 10° ESE visible
